1st Responders/1st Detectors/Storm Spotters Weather Summary for McCreary County, KY

Forecast Maps


Reg. NEXRAD Animation


National Fire Danger: Day 1 & 2 Map

Current NWS Watch/Warnings

SPC Convective Day 1 Outlook


Day 2 Outlook

(Click images to enlarge|Page will refresh every 5 minutes)
UK Ag. Weather Center Desktop Severe Weather Service[HERE]
McCreary County, KY Hazardous Weather Outlook Webcast
(9 AM to 9 PM Mon-Fri)
[Fast]
[Dial-up]


UKAWC 1st Detectors/1st Responders Precision Weather Forecast For MCCREARY County, Kentucky
(based on the NWS County Digital Forecast)

ISSUED AT 08:00 UTC ON FRIDAY OCT 19 2018
DAY FRIDAY
EDT 3HR 5A 6A 7A 8A 9A 10A 11A NOON 1P 2P 3P 4P 5P 6P 7P
MAX/MIN -- -- -- 38° -- -- -- -- -- -- -- -- -- -- 67°
TEMP 40° 38° 38° 40° 45° 50° 56° 61° 63° 65° 67° 67° 65° 63° 61°
SKY COVER 5% 6% 7% 9% 10% 13% 18% 20% 24% 28% 32% 42% 57% 60% 68%
Clouds
DEW PT 36° 38° 38° 38° 41° 43° 45° 45° 47° 47° 49° 49° 49° 52° 54°
RH 88% 96% 100% 92% 89% 77% 64% 57% 54% 54% 52% 54% 56% 65% 75%
POP 12HR -- -- -- 0% -- -- -- -- -- -- -- -- -- -- --
RAIN/SNOW (liq.equ) -- -- -- 0.00in -- -- -- -- -- 0.00in -- -- -- -- --
SNOWFALL -- -- -- 0in -- -- -- -- -- 0in -- -- -- -- --
WIND SPEED(MPH) 1 1 1 2 2 5 6 6 6 7 7 7 6 5 5
WIND Gust(MPH) 2 2 2 5 5 6 7 7 7 7 8 8 7 6 6
WIND DIR SE SE SE S S S S S SW SW SW SW SW SW SW
DEW Mod Dew Mod Dew Mod Dew Mod Dew Mod Dew -- -- -- -- -- -- -- -- -- Lgt Dew
HeatIndex 40 38 38 38 43 50 56 61 63 65 67 67 65 63 61
Rain Showers -- -- -- -- -- -- -- -- -- -- -- -- -- -- Slight Chance
Frost -- -- -- -- -- -- -- -- -- -- -- -- -- -- --
WIND CHILL -- -- -- -- -- -- -- -- -- -- -- -- -- -- --
SPRAY COND
DRY COND
LIVESTOCK COLDSTRESS
LIVESTOCK HEATSTRESS 41.24 38.46 38.00 40.83 45.83 51.11 56.55 60.48 61.94 63.43 64.84 64.93 63.50 62.19 60.70



DAY SATURDAY SUNDAY MONDAY TUESDAY WEDNESDAY THURSDAY
EDT 6HR 8P 9P 10P 11P MIDN 1A 2A 3A 4A 5A 6A 7A 8A 9A 10A 11A NOON 1P 2P 3P 4P 5P 8P 11P 2A 5A 8A 11A 2P 5P 8P 2A 8A 2P 8P 2A 8A 2P 8P 2A 8A 2P 8P 2A 8A 2P 8P
MAX/MIN -- -- -- -- -- -- -- -- -- -- -- -- 50° -- -- -- -- -- -- -- -- 58° -- -- -- -- 34° -- -- 49° -- -- 32° 58° -- -- 41° 61° -- -- 41° 63° -- -- 43° 59° --
TEMP 59° 59° 59° 58° 58° 56° 54° 54° 54° 52° 52° 52° 52° 50° 50° 52° 52° 54° 56° 58° 58° 56° 54° 49° 40° 38° 34° 40° 47° 47° 41° 36° 34° 58° 49° 47° 43° 61° 52° 45° 43° 63° 52° 47° 45° 59° 49°
SKY COVER 78% 81% 86% 92% 94% 96% 98% 99% 99% 100% 99% 99% 99% 94% 92% 91% 87% 82% 78% 69% 59% 50% 36% 25% 22% 11% 8% 3% 5% 2% 0% 0% 3% 14% 30% 48% 31% 20% 16% 11% 17% 34% 43% 62% 78% 65% 69%
Clouds
DEW PT 52° 54° 54° 54° 54° 54° 54° 52° 52° 50° 50° 50° 50° 50° 49° 49° 49° 49° 49° 49° 47° 47° 43° 38° 34° 31° 29° 27° 27° 25° 32° 31° 31° 32° 36° 38° 38° 41° 45° 41° 40° 45° 45° 43° 40° 45° 45°
RH 77% 80% 83% 87% 89% 93% 96% 96% 92% 92% 93% 96% 96% 99% 96% 93% 89% 83% 77% 71% 69% 69% 68% 68% 78% 78% 84% 61% 45% 40% 70% 85% 85% 38% 61% 73% 85% 47% 76% 85% 92% 51% 80% 86% 85% 57% 89%
POP 12HR 19% -- -- -- -- -- -- -- -- -- -- -- 89% -- -- -- -- -- -- -- -- -- 63% -- -- -- 5% -- -- -- 2% -- 0% -- 0% -- 2% -- 2% -- 3% -- 4% -- 19% -- 21%
RAIN/SNOW (liq.equ) 0.00in -- -- -- -- -- 0.13in -- -- -- -- -- 0.20in -- -- -- -- -- 0.01in -- -- -- 0.00in -- 0.00in -- 0.00in -- 0.00in -- 0.00in -- -- -- -- -- -- -- -- -- -- -- -- -- -- -- --
SNOWFALL 0in -- -- -- -- -- 0in -- -- -- -- -- 0in -- -- -- -- -- 0in -- -- -- 0in -- 0in -- 0in -- 0in -- 0in -- -- -- -- -- -- -- -- -- -- -- -- -- -- -- --
WIND SPEED(MPH) 5 5 5 5 5 5 6 6 6 6 6 6 6 6 7 7 7 7 8 8 9 9 10 10 8 7 5 7 7 5 5 0 1 7 2 2 2 5 2 2 1 2 5 5 6 6 6
WIND DIR SW SW SW SW SW W W W W W W W W W W W W W W W W W W NW N N N N N N N E SE SW SW SW S W NW NE E E NE E E E E
HeatIndex 59 59 59 58 58 56 54 54 54 52 52 52 52 50 50 52 52 54 56 58 58 56 54 49 35 32 29 35 47 47 39 36 34 58 49 47 41 61 52 45 43 63 52 47 41 59 49
Rain Showers Chance Chance Chance Likely Likely Definite Definite Definite Definite Definite Definite Likely Likely Chance Chance Chance Chance Chance Slight Chance Slight Chance Slight Chance -- -- -- -- -- -- -- -- -- -- -- -- -- -- -- -- -- -- -- -- -- -- -- Slight Chance Slight Chance Slight Chance
Frost -- -- -- -- -- -- -- -- -- -- -- -- -- -- -- -- -- -- -- -- -- -- -- -- -- -- Patchy -- -- -- -- -- Areas of -- -- -- -- -- -- -- -- -- -- -- -- -- --
WIND CHILL -- -- -- -- -- -- -- -- -- -- -- -- -- -- -- -- -- -- -- -- -- -- -- -- 35° 33° 30° 35° -- -- 38° -- -- -- -- -- -- -- -- -- -- -- -- -- 42° -- --
SPRAY COND
DRY COND
LIVESTOCK COLDSTRESS
LIVESTOCK HEATSTRESS 58.97 58.98 58.98 58.06 58.05 56.11 54.11 54.11 54.21 52.30 52.26 52.15 52.15 50.05 50.19 52.26 52.41 54.45 56.35 58.13 58.14 56.48 54.84 50.72 42.27 40.52 36.18 44.03 50.57 50.89 43.94 37.88 36.05 58.27 51.10 48.75 44.30 60.36 52.90 46.14 43.70 61.87 52.75 47.91 46.14 58.95 49.59

Click on individual weather variable above in left-hand column (ie., TEMP, RH, QPF 12HR) to view state forecast maps






NWS 48 Hr. Forecast Maps,

Regional Hourly Observations For MCCREARY County, Kentucky
Issued at 400 AM EDT FRI OCT 19 2018
SOUTHEAST KENTUCKY
  
CITY           SKY/WX    TMP DP  RH WIND       PRES   REMARKS
JACKSON        FAIR      40  33  76 CALM      30.34F                  
LONDON         FAIR      37  35  92 CALM      30.34F                  
SOMERSET       FAIR      36  36 100 CALM      30.35F                  
MIDDLESBORO    FOG       39  39 100 CALM      30.37F VSB 1/4          
MONTICELLO     FAIR      33  33 100 W8        30.35F WCI  26          


Current NOWCAST not available:
Nowcasts are not issued routinely during fair weather. Only when
precipitation or other significant weather is occuring in this county will these
forecasts be issued. Currently, there is no short term forecast in effect.


Fire Weather Forecast For MCCREARY County, KY
Provided by the National Weather Service:

Issued at: Fri Oct 19 04:05:01 EDT 2018


Cloud Cover           Clear        PCldy        Cloudy       MCldy        
Chance precip (%)     0            0            90           60           
Precip type           None         None         showers      showers      
Temp (24H TREND)      33-41 (+2)   65-68 (+10)  49-53        56-59        
Rh % (24H TREND)      89-100 (+12) 48-51 (+12)  96-100       60-65        
20ftwnd-AM(mph)                    Lgt/Var                   W 4-8        
20ftwnd-PM(mph)       Lgt/Var      SW 3-7       SW 2-6       W 8-12 G21   
Precip duration                                 6            1            
Precip begin                                    Continuing   Continuing   
Precip end                                      Continuing   6 PM         
Precip amount         0.00         0.00         0.35         0.01         
LAL                   1            1            1            1            
Haines Index (MID)                 4                         2            
Mixing hgt(ft-AGL)                 3200                      4600         
Transport wnd (mph)                SW 16                     W 29         
Vent rate (kt-ft)                  43547                     117189       
ADI Early             5 Very Poor  43 Gen Good  10 Poor      49 Gen Good  
ADI Late              20 Gen Poor  56 Gen Good  22 Fair      93 Good      
Max LVORI Early       6            5            6            5            
Max LVORI Late        7            4            6            3            

REMARKS...RANGES OF MIN T EXCEEDING 8 DEGREES & RANGES OF MAX RH        
EXCEEDING 10% INDICATE THE LIKELIHOOD OF THERMAL BELTS. ADI IS        
ATMOSPHERIC DISPERSION INDEX BY LAVDAS. DISPERSION INDEX IS        
MAGNITUDE OF VENT RATE DIVIDED BY 1000.


SPC's Fire Weather Web Tool (Excellent!), SPC's Fire Weather Outlooks, NWS Fire Weather WEB, Fire Danger Class Map,
Keetch-Byram Drought Index, ROMAN Web, Haines Index ,
WFAS's 10-hr Dead Fuel Moist., WFAS's 100-hr Dead Fuel Moist., Probablity of Ignition, Visual blackness Map, Palmer Drought Index, HPC's Rainfall Forecast Maps


Hazardous Weather Outlook For MCCREARY County, Kentucky
403 AM EDT Fri Oct 19 2018

   FROST ADVISORY IN EFFECT UNTIL 10 AM EDT THIS MORNING  

This hazardous weather outlook is for portions of eastern Kentucky.

 DAY ONE  Today and Tonight.

Near freezing temperatures will give way to the potential for 
frost development across portions of eastern Kentucky early this 
morning. Please see the latest frost advisory for more 
information. 

 DAYS TWO THROUGH SEVEN  Saturday through Thursday.

Temperatures are expected to drop down to or below the freezing 
mark Monday morning, resulting in the likelihood of frost across 
much of eastern Kentucky, especially in the valley locations. 

 SPOTTER INFORMATION STATEMENT  

Spotter activation is not anticipated.

Latest MCCREARY County, Kentucky Watches, Warnings and Advisories.
Additional Drought Info.: UKAWC Drought Page, Kentucky Drought Watch


7-Day Forecast For MCCREARY County, KY


FROST ADVISORY IN EFFECT UNTIL 10 AM EDT THIS MORNING

TODAY
Mostly sunny. Patchy valley fog early. Highs in the upper 60s. Light winds.

TONIGHT
Showers. Lows in the lower 50s. Light winds. Chance of rain near 100 percent.

SATURDAY
Cloudy in the morning then becoming mostly sunny. Showers likely in the morning, then a slight chance of showers in the afternoon. Highs around 60. Light winds becoming west around 10 mph in the afternoon. Chance of rain 70 percent.

SATURDAY NIGHT
Cold. Mostly clear. Lows in the mid 30s. Northwest winds around 10 mph.

SUNDAY
Sunny. Highs around 50. Light winds.

SUNDAY NIGHT
Cold, clear. Widespread frost. Lows in the lower 30s.

MONDAY
Sunny. Areas of frost. Highs around 60.

MONDAY NIGHT
Partly cloudy. Lows in the lower 40s.

TUESDAY
Sunny. Highs in the mid 60s.

TUESDAY NIGHT
Mostly clear. Lows in the lower 40s.

WEDNESDAY
Mostly sunny. Highs in the mid 60s.

WEDNESDAY NIGHT
Mostly cloudy. Lows in the mid 40s.

THURSDAY
Mostly cloudy with a 30 percent chance of showers. Highs in the lower 60s.

Ag Weather Center, Department of Biosystems & Agricultural Engineering, University of Kentucky